Location: Berua Church
(35.0423°N, 88.5987°W)
Time: 22:42:43
(UTC+00:00)

Cosmos 1110 Rocket - Pass Details

Date: 08 December 2019
Orbit: 752 x 781 km, 74.0° (Epoch: 22 January)

Event Time Altitude Azimuth Distance (km) Brightness Sun altitude
Rises 11:57:41 0° 189° (S) 3,208 7.4 -10.6°
Reaches altitude 10° 12:00:04 10° 187° (S) 2,282 6.6 -10.1°
Maximum altitude 12:05:11 68° 105° (ESE) 813 4.4 -9.2°
Drops below altitude 10° 12:10:19 10° 23° (NNE) 2,283 6.5 -8.2°
Sets 12:12:42 0° 21° (NNE) 3,209 7.2 -7.7°
